Flag for Finland Weather past 2 weeks in Lappeenranta, Finland

Now
55 °F

Partly sunny.


Feels Like: 55 °F
Forecast: 53 / 61 °F
Wind: 5 mph from Southeast

Location: Lappeenranta

Current Time: Jul 30, 2015 at 8:09:21 AM

Latest Report: Jul 30, 2015 at 7:20 AM


Visibility: N/A

Pressure: 29.53 "Hg

Humidity: 100%

Dew point: 55 °F

Location of LappeenrantaLocation

Historic Weather in Lappeenranta — Graph

°F

Lappeenranta temperature yesterday

Maximum temperature yesterday: 64 °F (at 1:50 PM)
Minimum temperature yesterday: 55 °F (at 2:50 AM)
Average temperature yesterday: 59 °F

Past Weeks' High & Low Weather Summary

 TemperatureHumidityPressure
High72 °F (Jul 18, 1:20 PM)100% (Jul 17, 3:20 AM)29.92 "Hg (Jul 17, 3:20 AM)
Low46 °F (Jul 28, 4:20 AM)31% (Jul 21, 4:50 PM)29.50 "Hg (Jul 29, 5:50 AM)
Average60 °F77%29.70 "Hg
* Reported Jul 15 6:20 AM — Jul 30 6:50 AM, Lappeenranta, Weather by CustomWeather, © 2015

Note: Actual official high and low records may vary slightly from our data, if they occured in-between our weather recording intervals... More about our weather records

Advertising

Lappeenranta weather history for previous 24 hours

 ConditionsComfort  
Time TempWeatherWind HumidityBarometerVisibility
6:50 AM
Thu, Jul 30
55 °FPartly sunny.3 mph100%29.53 "HgN/A
6:20 AM55 °FLow clouds.2 mph100%29.53 "HgN/A
5:50 AM54 °FMostly cloudy.2 mph100%29.53 "HgN/A
5:20 AM54 °FFog.2 mph100%29.53 "Hg2 mi
4:50 AM54 °FFog.2 mph100%29.53 "Hg1 mi
4:20 AM54 °FFog.3 mph100%29.53 "Hg0 mi
3:50 AM54 °FFog.3 mph100%29.53 "Hg0 mi
3:20 AM54 °FFog.2 mph100%29.53 "Hg0 mi
2:50 AM54 °FFog.3 mph100%29.53 "Hg0 mi
2:20 AM54 °FFog.3 mph100%29.53 "Hg2 mi
1:50 AM54 °FPassing clouds.5 mph100%29.53 "Hg4 mi
1:20 AM54 °FClear.5 mph100%29.53 "Hg6 mi
12:50 AM55 °FClear.6 mph94%29.53 "Hg10 mi
12:20 AM55 °FPassing clouds.5 mph94%29.53 "HgN/A
11:50 PM
Wed, Jul 29
55 °FPassing clouds.5 mph94%29.53 "HgN/A
11:20 PM55 °FClear.3 mph94%29.53 "Hg10 mi
10:50 PM57 °FSunny.3 mph88%29.53 "Hg10 mi
10:20 PM59 °FPassing clouds.6 mph82%29.50 "HgN/A
9:50 PM61 °FPassing clouds.6 mph77%29.50 "HgN/A
9:20 PM61 °FSunny.3 mph83%29.50 "Hg10 mi
8:50 PM61 °FSunny.2 mph88%29.50 "Hg10 mi
8:20 PM63 °FScattered clouds.3 mph77%29.50 "HgN/A
7:50 PM63 °FSunny.1 mph77%29.50 "Hg10 mi
7:20 PM63 °FSunny.2 mph77%29.50 "Hg10 mi
6:50 PM63 °FSunny.2 mph73%29.50 "Hg10 mi
6:20 PM63 °FSunny.2 mph73%29.50 "Hg10 mi
5:50 PM63 °FSunny.2 mph73%29.50 "Hg10 mi
5:20 PM63 °FSunny.1 mph73%29.50 "Hg10 mi
4:50 PM59 °FSprinkles. Overcast.6 mph82%29.50 "HgN/A
4:20 PM61 °FLight rain. Partly sunny.10 mph77%29.50 "HgN/A
3:50 PM64 °FBroken clouds.8 mph68%29.50 "HgN/A
3:20 PM64 °FBroken clouds.2 mph73%29.50 "HgN/A
2:50 PM64 °FPartly sunny.7 mph68%29.50 "HgN/A
2:20 PM64 °FScattered clouds.6 mph73%29.50 "HgN/A
1:50 PM64 °FScattered clouds.8 mph73%29.50 "HgN/A
1:20 PM63 °FPassing clouds.8 mph83%29.50 "HgN/A
12:50 PM61 °FLight rain. Passing clouds.7 mph83%29.50 "HgN/A
12:20 PM59 °FLight rain. Passing clouds.6 mph88%29.50 "HgN/A
11:50 AM57 °FLight rain. Scattered clouds.7 mph94%29.50 "HgN/A
11:20 AM57 °FSprinkles. Broken clouds.6 mph94%29.50 "HgN/A
10:20 AM59 °FPassing clouds.5 mph88%29.50 "HgN/A
9:50 AM59 °FSunny.1 mph88%29.50 "Hg10 mi
9:20 AM59 °FSunny.3 mph88%29.50 "Hg10 mi
8:50 AM59 °FSunny.No wind88%29.50 "Hg10 mi
8:20 AM59 °FSprinkles. Passing clouds.No wind88%29.50 "HgN/A
Weather by CustomWeather, © 2015

See weather overviewHow to use our weather pages